Location: Newark
(48.0000°N, 67.0000°E)
Time: 09:22:12
(UTC+00:00)

A-11 Canister half - Pass Details

Date: 24 February 2020
Orbit: 1516 x 1683 km, 47.2° (Epoch: 07 April)

Event Time Altitude Azimuth Distance (km) Brightness Sun altitude
Rises 15:13:02 0° 281° (WNW) 4,867 13.2 -21.7°
Reaches altitude 10° 15:16:13 10° 280° (W) 3,858 12.2 -22.2°
Maximum altitude 15:25:59 76° 198° (SSW) 1,627 9.0 -23.8°
Enters shadow 15:30:15 38° 121° (ESE) 2,220 9.3 -24.5°
